Location: Newark
(48.1236°N, 0.7169°W)
Time: 05:53:57
(UTC+00:00)

Envisat - Pass Details

Date: 24 November 2019
Orbit: 764 x 766 km, 98.1° (Epoch: 15 December)

Event Time Altitude Azimuth Distance (km) Brightness Sun altitude
Rises 19:10:51 0° 206° (SSW) 3,221 6.5 -28.6°
Reaches altitude 10° 19:13:44 10° 223° (SW) 2,300 5.9 -29.1°
Maximum altitude 19:17:25 20° 270° (W) 1,717 5.5 -29.7°
Drops below altitude 10° 19:21:08 10° 317° (NW) 2,312 6.0 -30.3°
Sets 19:24:03 0° 334° (NNW) 3,244 6.6 -30.8°
